• Processing (Info)

  • MPEC 2017-B164: 2017 BV32

    The following Minor Planet Electronic Circular may be linked-to from your own Web pages, but must not otherwise be redistributed electronically.

    A form allowing access to any MPEC is at the bottom of this page.


    Read MPEC 2017-B163 Read MPEC 2017-B165


    M.P.E.C. 2017-B164                               Issued 2017 Jan. 31, 15:31 UT
    
         The Minor Planet Electronic Circulars contain information on unusual
             minor planets and routine data on comets.  They are published
        on behalf of Division F of the International Astronomical Union by the
              Minor Planet Center, Smithsonian Astrophysical Observatory,
                              Cambridge, MA 02138, U.S.A.
    
                 Prepared using the Tamkin Foundation Computer Network
    
                                  MPC@CFA.HARVARD.EDU
                URL https://www.minorplanetcenter.net/    ISSN 1523-6714
    
                                       2017 BV32
    
    Observations:
         K17B32V* C2017 01 28.23528 03 09 03.519-06 12 58.38         21.9 wLEB164F51
         K17B32V  C2017 01 28.24673 03 09 04.371-06 12 59.73         21.9 wLEB164F51
         K17B32V  C2017 01 28.25784 03 09 05.185-06 13 01.17         21.9 wLEB164F51
         K17B32V |C2017 01 29.05113 03 10 05.77 -06 14 30.9          22.1 VuEB164807
         K17B32V |C2017 01 29.05821 03 10 06.31 -06 14 31.3          22.0 VuEB164807
         K17B32V |C2017 01 29.06530 03 10 06.85 -06 14 32.1          22.0 VuEB164807
         K17B32V |C2017 01 30.05122 03 11 23.27 -06 16 18.2          21.7 VuEB164807
         K17B32V |C2017 01 30.05831 03 11 23.79 -06 16 18.9          21.7 VuEB164807
         K17B32V |C2017 01 30.06540 03 11 24.36 -06 16 20.0          21.8 VuEB164807
         K17B32V KC2017 01 31.12199 03 12 47.59 -06 18 04.9          22.5 RoEB164291
         K17B32V KC2017 01 31.12648 03 12 47.93 -06 18 05.1          22.0 RoEB164291
         K17B32V KC2017 01 31.13097 03 12 48.26 -06 18 04.9          22.8 RoEB164291
    
    Observer details:
    291 LPL/Spacewatch II.  Observer A. F. Tubbiolo.  1.8-m f/2.7 reflector + CCD.
    807 Cerro Tololo.  Observers T. Linder, R. Holmes.  0.61-m f/6.5 astrograph
        + CCD.
    F51 Pan-STARRS 1, Haleakala.  Observers B. Gibson, T. Goggia, S. Kahale,
        T. Lowe, A. Schultz, M. Willman.  Measurers K. Chambers, S. Chastel,
        L. Denneau, H. Flewelling, M. Huber, E. Lilly, E. Magnier, R. Wainscoat,
        C. Waters, R. Weryk.  1.8-m Ritchey-Chretien + CCD.
    
    Orbital elements:
    2017 BV32                                                Earth MOID = 0.2020 AU
    Epoch 2017 Feb. 16.0 TT = JDT 2457800.5                 MPC
    M 189.91255              (2000.0)            P               Q
    n   0.85598307     Peri.   31.43623     +0.03230038     +0.86241282
    a   1.0985654      Node   245.02446     -0.99298774     -0.02981811
    e   0.2908392      Incl.   33.86838     -0.11371909     +0.50532664
    P   1.15           H   19.5           G   0.15           U   9
    Residuals in seconds of arc
    170128 F51  0.2-  0.1-    170129 807  0.1+  0.3+    170130 807  0.3+  0.3-
    170128 F51  0.1+  0.0     170129 807  0.3+  0.3+    170131 291  0.1+  0.3-
    170128 F51  0.2+  0.0     170130 807  0.1-  0.1+    170131 291  0.1+  0.2-
    170129 807  0.1-  0.1-    170130 807  0.3-  0.1+    170131 291  0.1-  0.4+
    
    Ephemeris:
    2017 BV32                a,e,i = 1.10, 0.29, 34                  q = 0.7791
    Date    TT    R. A. (2000) Decl.     Delta      r     Elong.  Phase     V
    2017 01 01    02 42 59.2 -02 17 46   0.6477  1.3927   115.7    39.5    20.8
    ...
    2017 01 16    02 55 03.6 -05 19 05   0.8146  1.4100   102.9    42.9    21.5
    ...
    2017 01 24    03 03 51.8 -06 00 50   0.9025  1.4153    97.1    43.6    21.7
    ...
    2017 01 30    03 11 19.5 -06 16 17   0.9666  1.4174    93.1    43.9    21.9
    2017 01 31    03 12 38.0 -06 17 49   0.9771  1.4177    92.5    44.0    21.9
    2017 02 01    03 13 57.6 -06 19 05   0.9875  1.4178    91.9    44.0    21.9
    ...
    2017 02 07    03 22 16.1 -06 21 54   1.0487  1.4179    88.3    44.0    22.1
    ...
    2017 02 15    03 34 12.0 -06 15 34   1.1261  1.4157    83.8    43.9    22.2
    ...
    2017 03 02    03 58 56.2 -05 44 32   1.2555  1.4041    76.4    43.3    22.4
    
    A. U. Tomatic                (C) Copyright 2017 MPC           M.P.E.C. 2017-B164
    

    Read MPEC 2017-B163 Read MPEC 2017-B165


    MPEC number:

    Enter an MPEC number in one of the following forms:

    • 1997-B01 (the full form)
    • J97B01 (the packed version of the full form)
    • B01 (the abbreviated form)